QPF
0.43 0.35 0.31 0.52 0.30 0.20 0.03 0.00 0.00 0.00 0.00 0.00 0.00 0.00 0.00 0.00 0.00 0.00 0.00 0.00 0.00 0.00 0.00 0.00 0.00 0.00 0.00 0.00 0.00 0.00 0.00 0.00 0.00 0.00 0.00 0.00 0.00 0.00 0.00 0.00 0.00 0.00
0.36 0.46 0.35 0.30 0.21 0.14 0.12 0.03 0.02 0.09 0.09 0.00 0.00 0.00 0.00 0.00 0.00 0.00 0.00 0.00 0.00 0.00 0.00 0.00 0.00 0.00 0.00 0.00 0.00 0.00 0.00 0.00 0.00 0.00 0.00 0.00 0.00 0.00 0.00 0.00 0.00 0.00
0.57 0.61 0.70 0.58 0.53 0.60 0.31 0.38 0.31 0.14 0.03 0.00 0.00 0.00 0.00 0.00 0.00 0.00 0.00 0.00 0.00 0.00 0.00 0.00 0.00 0.00 0.00 0.00 0.00 0.00 0.00 0.00 0.00 0.00 0.00 0.00 0.00 0.00 0.00 0.00 0.00 0.00
0.62 0.68 0.72 0.83 0.77 0.58 0.46 0.25 0.00 0.00 0.00 0.00 0.00 0.00 0.00 0.00 0.00 0.00 0.03 0.01 0.02 0.04 0.00 0.00 0.00 0.00 0.00 0.00 0.00 0.00 0.00 0.00 0.00 0.00 0.00 0.00 0.00 0.00 0.00 0.00 0.00 0.00
0.82 0.74 0.68 0.57 0.48 0.43 0.31 0.19 0.03 0.02 0.01 0.00 0.00 0.00 0.00 0.00 0.05 0.10 0.04 0.02 0.02 0.01 0.02 0.00 0.00 0.00 0.00 0.00 0.00 0.00 0.00 0.00 0.00 0.00 0.00 0.00 0.00 0.00 0.00 0.00 0.00 0.00
0.32 0.48 0.52 0.35 0.36 0.23 0.18 0.06 0.04 0.03 0.02 0.01 0.00 0.01 0.00 0.00 0.09 0.39 0.77 0.13 0.05 0.01 0.01 0.01 0.00 0.01 0.00 0.00 0.00 0.00 0.00 0.00 0.00 0.00 0.00 0.00 0.00 0.00 0.00 0.00 0.00 0.00
0.25 0.37 0.43 0.26 0.24 0.23 0.10 0.05 0.04 0.04 0.02 0.01 0.00 0.00 0.00 0.00 0.01 0.29 0.18 0.03 0.01 0.01 0.05 0.02 0.01 0.03 0.05 0.01 0.00 0.00 0.00 0.00 0.00 0.00 0.00 0.00 0.00 0.00 0.00 0.00 0.00 0.00
0.09 0.07 0.07 0.19 0.38 0.16 0.08 0.05 0.11 0.11 0.10 0.13 0.01 0.00 0.00 0.00 0.00 0.00 0.01 0.01 0.01 0.09 0.22 0.39 0.55 0.11 0.01 0.01 0.00 0.00 0.00 0.00 0.00 0.00 0.00 0.00 0.00 0.00 0.00 0.00 0.00 0.00
0.03 0.04 0.14 0.28 0.40 0.29 0.19 0.06 0.03 0.23 0.22 0.11 0.01 0.00 0.00 0.00 0.00 0.00 0.00 0.00 0.05 0.59 0.09 0.04 0.06 0.14 0.13 0.18 0.01 0.01 0.00 0.00 0.00 0.00 0.00 0.00 0.00 0.00 0.00 0.00 0.00 0.00
0.05 0.05 0.14 0.42 0.26 0.30 0.16 0.23 0.12 0.28 0.35 0.24 0.13 0.00 0.00 0.00 0.00 0.00 0.02 0.02 0.44 0.37 0.21 0.39 0.18 0.12 0.16 0.11 0.03 0.08 0.02 0.00 0.00 0.00 0.00 0.00 0.00 0.00 0.00 0.00 0.00 0.00
0.02 0.04 0.17 0.17 0.08 0.15 0.23 0.44 0.22 0.37 0.30 0.07 0.02 0.08 0.10 0.20 0.03 0.17 0.32 0.19 0.06 0.12 0.34 0.21 0.17 0.38 0.10 0.28 0.22 0.04 0.03 0.01 0.00 0.00 0.00 0.00 0.00 0.00 0.00 0.00 0.00 0.00
0.03 0.04 0.10 0.34 0.30 0.21 0.26 0.31 0.38 0.69 0.23 0.14 0.15 0.10 0.07 0.27 0.32 0.34 0.46 0.37 0.07 0.50 0.53 0.32 0.49 0.43 0.35 0.45 0.28 0.25 0.06 0.03 0.02 0.00 0.00 0.00 0.00 0.00 0.00 0.00 0.00 0.00
0.09 0.19 0.14 0.18 0.17 0.25 0.34 0.41 0.40 0.56 0.43 0.23 0.17 0.14 0.14 0.18 0.22 0.22 0.30 0.34 0.39 0.53 0.49 0.41 0.56 0.37 0.20 0.38 0.35 0.13 0.22 0.03 0.00 0.00 0.00 0.00 0.00 0.00 0.00 0.01 0.01 0.01
0.01 0.02 0.18 0.18 0.19 0.30 0.29 0.32 0.36 0.36 0.25 0.22 0.34 0.64 0.17 0.02 0.06 0.10 0.12 0.19 0.40 0.79 0.64 0.47 0.62 0.49 0.31 0.11 0.04 0.16 0.02 0.06 0.00 0.00 0.00 0.00 0.00 0.00 0.00 0.00 0.00 0.00
0.03 0.01 0.04 0.08 0.12 0.10 0.10 0.29 0.19 0.13 0.08 0.18 0.29 0.34 0.28 0.18 0.43 0.23 0.36 0.17 0.11 0.23 0.34 0.25 0.26 0.28 0.25 0.20 0.10 0.04 0.00 0.00 0.00 0.00 0.00 0.00 0.00 0.00 0.00 0.00 0.00 0.00
0.00 0.00 0.03 0.04 0.03 0.02 0.03 0.03 0.06 0.09 0.11 0.17 0.15 0.10 0.09 0.05 0.03 0.03 0.25 0.17 0.37 0.67 0.15 0.02 0.02 0.02 0.02 0.02 0.02 0.02 0.01 0.09 0.01 0.00 0.00 0.00 0.00 0.00 0.00 0.00 0.00 0.00
0.00 0.00 0.02 0.03 0.03 0.02 0.01 0.01 0.01 0.01 0.01 0.02 0.03 0.05 0.10 0.08 0.12 0.14 0.08 0.60 0.11 0.10 0.03 0.03 0.12 0.05 0.01 0.02 0.02 0.05 0.05 0.03 0.01 0.00 0.00 0.00 0.00 0.00 0.00 0.00 0.00 0.00
0.01 0.01 0.01 0.02 0.05 0.06 0.05 0.03 0.02 0.03 0.03 0.02 0.01 0.02 0.04 0.03 0.02 0.02 0.02 0.17 0.24 0.12 0.04 0.07 0.03 0.04 0.02 0.13 0.16 0.16 0.11 0.24 0.09 0.03 0.04 0.00 0.00 0.00 0.00 0.00 0.00 0.00
0.01 0.01 0.01 0.01 0.06 0.03 0.02 0.01 0.02 0.02 0.02 0.01 0.01 0.01 0.02 0.04 0.03 0.02 0.03 0.10 0.23 0.01 0.08 0.09 0.06 0.04 0.06 0.01 0.01 0.17 0.06 0.04 0.10 0.05 0.02 0.07 0.01 0.00 0.00 0.00 0.00 0.00
0.01 0.01 0.01 0.01 0.02 0.07 0.16 0.06 0.02 0.02 0.04 0.04 0.01 0.01 0.02 0.04 0.11 0.17 0.15 0.17 0.10 0.08 0.06 0.11 0.13 0.07 0.04 0.03 0.02 0.02 0.02 0.08 0.23 0.16 0.10 0.07 0.12 0.12 0.18 0.12 0.08 0.00
0.00 0.00 0.00 0.00 0.02 0.11 0.09 0.03 0.02 0.01 0.01 0.17 0.14 0.08 0.01 0.07 0.17 0.21 0.36 0.23 0.32 0.32 0.20 0.19 0.14 0.07 0.09 0.04 0.02 0.02 0.01 0.01 0.14 0.17 0.09 0.24 0.23 0.11 0.04 0.03 0.02 0.00
0.00 0.00 0.02 0.01 0.01 0.03 0.06 0.06 0.08 0.04 0.02 0.03 0.02 0.05 0.08 0.05 0.06 0.16 0.19 0.29 0.31 0.16 0.21 0.23 0.11 0.18 0.02 0.01 0.01 0.01 0.01 0.18 0.33 0.20 0.14 0.06 0.05 0.04 0.11 0.02 0.01 0.01
0.00 0.00 0.00 0.00 0.04 0.07 0.05 0.08 0.07 0.09 0.08 0.08 0.02 0.02 0.02 0.06 0.07 0.04 0.02 0.05 0.03 0.07 0.07 0.05 0.06 0.12 0.08 0.07 0.02 0.00 0.10 0.06 0.04 0.07 0.06 0.05 0.04 0.02 0.06 0.04 0.02 0.01
0.00 0.00 0.00 0.00 0.03 0.04 0.08 0.04 0.03 0.04 0.13 0.06 0.05 0.09 0.10 0.01 0.01 0.01 0.00 0.00 0.00 0.02 0.11 0.17 0.21 0.20 0.37 0.13 0.22 0.18 0.40 0.09 0.09 0.38 0.20 0.07 0.05 0.07 0.07 0.08 0.06 0.58
0.03 0.01 0.10 0.09 0.07 0.04 0.16 0.05 0.08 0.19 0.14 0.10 0.14 0.22 0.16 0.01 0.00 0.00 0.01 0.00 0.00 0.00 0.12 0.18 0.24 0.17 0.18 0.20 0.13 0.01 0.02 0.04 0.03 0.08 0.30 0.56 0.31 0.13 0.13 0.06 0.03 0.50
0.09 0.06 0.07 0.10 0.15 0.06 0.07 0.08 0.09 0.09 0.03 0.03 0.04 0.01 0.00 0.00 0.01 0.00 0.00 0.00 0.03 0.06 0.13 0.26 0.16 0.12 0.17 0.03 0.02 0.04 0.22 0.19 0.12 0.24 0.09 0.03 0.02 0.02 0.02 0.02 0.05 0.08
MSLP
1012.55 1012.59 1012.99 1013.31 1013.35 1013.03 1012.43 1012.15 1012.03 1012.03 1012.07 1012.07 1012.31 1012.43 1012.47 1012.35 1012.27 1012.35 1012.35 1012.39 1012.55 1012.71 1012.83 1012.91 1012.99 1013.11 1013.11 1013.19 1013.23 1013.35 1013.43 1013.51 1013.43 1013.31 1013.47 1013.59 1013.71 1013.75 1014.03 1014.11 1014.19 1014.31
1012.39 1012.51 1012.63 1012.71 1012.99 1012.79 1012.51 1012.03 1011.99 1011.83 1011.79 1011.71 1011.75 1011.91 1012.11 1012.11 1012.11 1012.15 1012.19 1012.19 1012.23 1012.43 1012.47 1012.63 1012.71 1012.79 1012.95 1013.07 1013.15 1013.31 1013.39 1013.43 1013.47 1013.07 1013.31 1013.51 1013.55 1013.51 1013.71 1013.75 1013.87 1013.91
1012.07 1012.11 1012.19 1012.31 1012.55 1012.91 1012.79 1012.39 1012.31 1012.31 1012.11 1011.71 1011.43 1011.47 1011.71 1011.79 1011.99 1012.03 1012.27 1012.43 1012.51 1012.39 1012.27 1012.35 1012.47 1012.55 1012.67 1012.79 1012.91 1013.11 1013.27 1013.39 1013.39 1013.11 1013.11 1013.31 1013.35 1013.47 1013.43 1013.43 1013.59 1013.75
1011.83 1011.83 1011.87 1011.83 1011.87 1011.95 1012.15 1012.43 1012.35 1012.35 1012.31 1012.15 1011.79 1011.47 1011.47 1011.51 1011.67 1012.07 1012.43 1012.79 1013.23 1013.23 1012.79 1012.47 1012.27 1012.31 1012.43 1012.51 1012.71 1012.95 1012.99 1013.03 1012.95 1012.91 1013.03 1013.03 1013.07 1013.15 1013.27 1013.27 1013.43 1013.55
1011.63 1011.59 1011.67 1011.55 1011.47 1011.55 1011.79 1012.27 1012.35 1012.19 1012.23 1012.07 1011.83 1011.55 1011.51 1011.63 1011.75 1011.83 1012.03 1012.27 1012.55 1013.03 1012.95 1012.91 1012.59 1012.19 1012.15 1012.35 1012.51 1012.79 1012.79 1012.91 1012.79 1012.79 1012.95 1013.11 1012.99 1013.03 1013.11 1013.19 1013.43 1013.59
1011.19 1011.15 1011.23 1011.43 1011.35 1011.47 1011.67 1011.83 1011.83 1011.83 1011.75 1011.71 1011.67 1011.55 1011.51 1011.47 1011.59 1011.59 1011.55 1011.75 1011.99 1012.31 1012.67 1012.67 1012.75 1012.59 1012.15 1012.07 1012.31 1012.43 1012.55 1012.71 1012.63 1012.67 1012.91 1013.03 1013.07 1012.91 1012.95 1013.07 1013.27 1013.47
1010.95 1010.83 1011.03 1011.03 1011.11 1011.15 1011.35 1011.39 1011.35 1011.23 1011.07 1010.87 1010.83 1011.07 1011.19 1011.43 1011.47 1011.39 1011.31 1011.43 1011.67 1012.03 1012.43 1012.83 1013.15 1013.15 1013.19 1012.47 1012.11 1012.27 1012.27 1012.35 1012.39 1012.55 1012.75 1012.87 1012.87 1012.99 1012.83 1012.91 1013.07 1013.23
1010.95 1010.55 1010.55 1010.79 1010.83 1010.75 1010.87 1010.99 1010.95 1010.79 1010.55 1010.43 1010.39 1010.23 1010.43 1010.95 1011.23 1011.19 1011.19 1011.27 1011.67 1012.11 1012.35 1012.59 1012.67 1012.91 1013.55 1013.79 1012.55 1012.15 1012.23 1012.15 1012.31 1012.47 1012.63 1012.71 1012.71 1012.87 1012.75 1012.67 1012.75 1013.03
1010.87 1010.75 1010.51 1010.47 1010.59 1010.51 1010.51 1010.51 1010.47 1010.43 1010.27 1010.43 1010.27 1009.99 1009.79 1010.11 1010.59 1010.79 1010.91 1011.11 1011.51 1011.51 1011.63 1012.15 1012.39 1012.59 1013.03 1013.99 1013.71 1012.51 1011.99 1012.07 1012.03 1012.23 1012.43 1012.59 1012.71 1012.63 1012.59 1012.51 1012.71 1012.83
1010.75 1010.63 1010.59 1010.51 1010.55 1010.43 1010.39 1010.19 1010.11 1010.07 1010.03 1010.23 1010.27 1010.07 1009.83 1009.51 1009.63 1010.03 1010.35 1010.67 1010.99 1011.03 1011.15 1011.63 1012.03 1012.31 1012.43 1012.87 1013.55 1013.31 1012.07 1011.79 1011.79 1011.91 1011.99 1012.11 1012.23 1012.31 1012.35 1012.43 1012.55 1012.71
1010.67 1010.51 1010.51 1010.43 1010.43 1010.43 1010.43 1010.23 1010.11 1010.07 1010.07 1010.15 1010.19 1010.19 1009.71 1009.31 1009.19 1009.27 1009.79 1010.27 1010.63 1010.75 1010.91 1011.19 1011.47 1011.67 1011.99 1012.31 1012.87 1013.51 1013.23 1011.87 1011.51 1011.63 1011.71 1011.71 1011.79 1011.87 1011.91 1012.07 1012.23 1012.39
1010.67 1010.55 1010.47 1010.31 1010.23 1010.19 1010.19 1010.23 1010.23 1010.19 1010.19 1010.15 1010.15 1010.19 1009.95 1009.55 1009.19 1009.07 1009.19 1009.59 1009.91 1010.15 1010.35 1010.71 1010.83 1010.67 1010.91 1011.27 1011.71 1012.75 1013.59 1012.79 1011.43 1011.27 1011.31 1011.35 1011.39 1011.47 1011.59 1011.67 1011.91 1011.99
1010.67 1010.55 1010.35 1010.23 1010.07 1009.95 1009.87 1009.87 1009.91 1009.99 1010.07 1010.15 1010.03 1009.99 1009.95 1009.87 1009.75 1009.59 1009.43 1009.51 1009.71 1009.83 1009.99 1010.15 1010.31 1010.39 1010.55 1010.59 1010.83 1011.07 1011.83 1012.63 1012.15 1011.19 1011.07 1011.03 1011.03 1011.11 1011.19 1011.31 1011.43 1011.55
1010.63 1010.35 1010.23 1010.11 1009.99 1009.83 1009.71 1009.59 1009.59 1009.63 1009.71 1009.75 1009.75 1009.83 1009.83 1009.79 1009.71 1009.59 1009.47 1009.51 1009.63 1009.59 1009.55 1009.59 1009.79 1010.15 1010.59 1010.83 1010.75 1010.47 1010.75 1011.35 1011.63 1011.15 1010.87 1010.83 1010.75 1010.79 1010.87 1010.99 1011.11 1011.19
1010.51 1010.27 1010.03 1009.99 1009.87 1009.83 1009.71 1009.59 1009.43 1009.35 1009.31 1009.39 1009.51 1009.59 1009.55 1009.51 1009.47 1009.43 1009.47 1009.47 1009.39 1009.35 1009.39 1009.47 1009.59 1009.63 1009.79 1010.19 1010.51 1010.39 1010.35 1010.59 1010.67 1010.55 1010.39 1010.51 1010.59 1010.63 1010.63 1010.71 1010.87 1010.91
1010.39 1010.19 1010.03 1009.87 1009.83 1009.79 1009.63 1009.51 1009.39 1009.31 1009.27 1009.27 1009.31 1009.43 1009.43 1009.43 1009.39 1009.31 1009.27 1009.27 1009.35 1009.31 1009.31 1009.31 1009.27 1009.31 1009.39 1009.55 1009.67 1009.79 1009.99 1010.11 1010.11 1010.07 1009.99 1010.03 1010.27 1010.43 1010.51 1010.55 1010.55 1010.67
1010.31 1010.11 1009.87 1009.83 1009.63 1009.51 1009.47 1009.43 1009.31 1009.23 1009.23 1009.19 1009.15 1009.15 1009.27 1009.23 1009.19 1009.27 1009.19 1009.11 1009.19 1009.23 1009.27 1009.23 1009.19 1009.11 1009.03 1009.15 1009.27 1009.39 1009.51 1009.63 1009.71 1009.75 1009.79 1009.87 1009.87 1010.07 1010.27 1010.39 1010.43 1010.43
1010.15 1009.95 1009.79 1009.59 1009.47 1009.39 1009.27 1009.19 1009.15 1009.15 1009.15 1009.11 1009.07 1009.07 1008.99 1008.99 1009.11 1009.07 1008.99 1008.95 1008.99 1009.03 1009.11 1009.07 1008.99 1008.79 1008.79 1008.87 1008.95 1008.99 1009.03 1009.23 1009.31 1009.47 1009.63 1009.83 1009.91 1009.95 1009.91 1010.03 1010.23 1010.35
1009.91 1009.83 1009.67 1009.47 1009.39 1009.31 1009.03 1008.95 1009.03 1009.03 1008.99 1008.99 1008.95 1008.79 1008.75 1008.83 1008.79 1008.75 1008.83 1008.79 1008.79 1008.87 1008.87 1008.71 1008.63 1008.51 1008.63 1008.71 1008.79 1008.87 1008.87 1008.91 1009.11 1009.27 1009.51 1009.55 1009.63 1009.79 1009.87 1009.95 1010.07 1010.27
1009.71 1009.63 1009.55 1009.35 1009.19 1009.19 1009.23 1009.15 1008.91 1008.83 1008.71 1008.63 1008.55 1008.51 1008.55 1008.55 1008.43 1008.51 1008.47 1008.55 1008.59 1008.67 1008.67 1008.51 1008.47 1008.31 1008.39 1008.47 1008.55 1008.67 1008.79 1008.91 1008.99 1009.15 1009.27 1009.31 1009.35 1009.47 1009.63 1009.71 1009.79 1010.07
1009.63 1009.51 1009.39 1009.19 1009.03 1008.91 1008.83 1008.83 1008.63 1008.51 1008.39 1008.43 1008.55 1008.59 1008.51 1008.39 1008.31 1008.31 1008.27 1008.27 1008.27 1008.27 1008.35 1008.35 1008.19 1008.03 1008.11 1008.19 1008.35 1008.51 1008.63 1008.75 1008.87 1008.99 1009.03 1008.95 1008.91 1009.03 1009.27 1009.39 1009.43 1009.51
1009.51 1009.43 1009.23 1009.07 1008.95 1008.83 1008.79 1008.79 1008.75 1008.55 1008.23 1007.91 1007.91 1008.03 1008.19 1008.23 1008.19 1008.11 1008.15 1008.19 1008.11 1008.07 1008.15 1008.15 1007.91 1007.83 1007.95 1008.03 1008.15 1008.35 1008.51 1008.67 1008.71 1008.83 1008.87 1008.83 1008.79 1008.87 1008.99 1009.07 1009.11 1009.27
1009.35 1009.31 1009.19 1009.03 1008.91 1008.87 1008.75 1008.63 1008.59 1008.55 1008.43 1008.15 1007.99 1007.75 1007.83 1008.07 1008.19 1008.19 1008.11 1008.07 1008.03 1007.95 1007.99 1007.91 1007.75 1007.63 1007.71 1007.79 1007.95 1008.11 1008.43 1008.55 1008.55 1008.55 1008.59 1008.63 1008.55 1008.47 1008.55 1008.71 1008.83 1008.87
1009.23 1009.15 1009.11 1008.95 1008.87 1008.83 1008.67 1008.43 1008.23 1008.11 1008.31 1008.27 1008.11 1007.99 1007.79 1007.47 1007.39 1007.59 1007.67 1007.75 1007.83 1007.83 1007.67 1007.75 1007.55 1007.35 1007.43 1007.51 1007.59 1007.75 1007.95 1008.15 1008.27 1008.39 1008.43 1008.43 1008.39 1008.27 1008.27 1008.35 1008.39 1008.39
1009.11 1008.95 1008.91 1008.79 1008.71 1008.55 1008.43 1008.35 1008.15 1008.03 1007.91 1007.83 1007.79 1007.75 1007.75 1007.75 1007.43 1007.35 1007.39 1007.43 1007.47 1007.47 1007.39 1007.43 1007.39 1007.23 1007.19 1007.27 1007.35 1007.47 1007.67 1007.79 1007.91 1008.03 1008.15 1008.15 1008.19 1008.23 1008.07 1008.07 1008.11 1008.07
1008.87 1008.75 1008.59 1008.55 1008.43 1008.23 1008.15 1008.11 1007.95 1007.83 1007.67 1007.67 1007.55 1007.47 1007.47 1007.47 1007.35 1007.27 1007.27 1007.23 1007.19 1007.23 1007.23 1007.11 1007.15 1007.07 1006.99 1007.07 1007.15 1007.23 1007.31 1007.39 1007.47 1007.67 1007.75 1007.75 1007.75 1007.87 1008.03 1007.99 1007.91 1007.83
Thickness
5764 5763 5759 5758 5757 5760 5766 5772 5775 5778 5780 5781 5780 5778 5778 5779 5780 5780 5780 5781 5782 5781 5781 5782 5783 5784 5784 5786 5786 5786 5787 5787 5787 5789 5789 5787 5788 5788 5786 5785 5786 5785
5763 5761 5759 5758 5756 5757 5761 5766 5770 5774 5778 5782 5783 5782 5780 5780 5780 5780 5780 5781 5781 5781 5782 5781 5782 5783 5784 5785 5785 5785 5785 5785 5786 5789 5788 5787 5787 5787 5787 5786 5786 5786
5762 5760 5759 5759 5757 5756 5757 5760 5763 5765 5768 5774 5780 5782 5782 5782 5781 5780 5779 5778 5777 5778 5780 5781 5781 5782 5783 5784 5784 5784 5784 5784 5784 5787 5787 5787 5787 5786 5787 5787 5786 5786
5762 5760 5759 5759 5760 5760 5760 5759 5759 5761 5762 5765 5772 5777 5779 5780 5780 5779 5777 5774 5771 5772 5776 5778 5780 5781 5782 5783 5783 5782 5783 5784 5784 5786 5785 5786 5787 5786 5787 5787 5786 5786
5762 5761 5759 5758 5759 5761 5761 5759 5758 5761 5761 5761 5765 5770 5773 5775 5776 5777 5777 5775 5772 5770 5771 5774 5776 5779 5781 5782 5781 5781 5781 5782 5784 5786 5784 5783 5785 5786 5786 5786 5785 5785
5763 5762 5760 5757 5758 5758 5758 5758 5759 5762 5763 5764 5765 5767 5768 5770 5771 5774 5776 5776 5775 5772 5769 5770 5771 5774 5778 5781 5781 5781 5782 5782 5783 5784 5783 5782 5783 5784 5786 5785 5784 5784
5761 5762 5760 5757 5757 5757 5756 5758 5759 5762 5765 5768 5771 5771 5771 5769 5769 5772 5774 5775 5774 5770 5768 5767 5766 5767 5769 5775 5779 5780 5781 5782 5782 5782 5781 5781 5781 5782 5784 5784 5784 5783
5758 5760 5760 5758 5758 5757 5757 5757 5759 5763 5766 5770 5773 5777 5778 5775 5772 5773 5774 5773 5771 5769 5768 5767 5767 5767 5763 5764 5772 5779 5780 5780 5781 5780 5779 5780 5781 5780 5783 5784 5784 5783
5754 5756 5757 5758 5757 5757 5757 5758 5759 5763 5765 5768 5771 5775 5778 5778 5777 5777 5777 5774 5772 5772 5771 5769 5767 5768 5765 5760 5763 5772 5778 5779 5779 5780 5779 5779 5780 5780 5782 5784 5783 5783
5751 5752 5753 5754 5755 5755 5756 5758 5759 5762 5764 5765 5767 5769 5774 5778 5779 5780 5779 5777 5775 5774 5773 5771 5768 5767 5767 5764 5761 5764 5773 5778 5779 5779 5780 5781 5780 5781 5782 5782 5782 5782
5748 5749 5750 5751 5751 5752 5753 5755 5757 5759 5761 5763 5764 5766 5770 5775 5778 5780 5779 5777 5775 5775 5774 5773 5771 5769 5769 5769 5765 5759 5762 5772 5778 5778 5779 5781 5781 5782 5782 5782 5782 5782
5744 5745 5746 5748 5749 5751 5752 5753 5754 5756 5758 5759 5761 5763 5766 5770 5774 5775 5776 5776 5775 5776 5776 5774 5773 5774 5774 5775 5774 5766 5759 5765 5774 5778 5779 5780 5782 5783 5783 5782 5782 5782
5740 5742 5743 5745 5747 5749 5752 5753 5753 5754 5755 5756 5758 5760 5762 5764 5766 5768 5771 5773 5773 5776 5778 5776 5776 5775 5774 5775 5777 5775 5769 5765 5769 5775 5778 5780 5781 5783 5783 5783 5783 5782
5737 5739 5741 5742 5743 5746 5749 5751 5753 5753 5754 5754 5755 5757 5759 5760 5762 5765 5768 5770 5772 5775 5777 5778 5778 5775 5772 5770 5772 5776 5775 5771 5770 5774 5777 5779 5781 5782 5783 5783 5782 5783
5733 5736 5738 5739 5740 5743 5745 5748 5750 5752 5752 5753 5753 5754 5755 5757 5760 5763 5766 5768 5770 5773 5774 5776 5778 5778 5776 5774 5773 5775 5777 5775 5774 5776 5778 5779 5780 5780 5781 5782 5782 5782
5729 5731 5734 5735 5737 5739 5742 5744 5746 5748 5750 5750 5751 5751 5751 5754 5757 5760 5763 5765 5768 5769 5770 5772 5775 5777 5777 5776 5776 5777 5777 5777 5776 5778 5779 5780 5781 5780 5779 5780 5781 5781
5725 5728 5730 5732 5734 5736 5740 5742 5743 5744 5746 5747 5749 5749 5750 5752 5753 5756 5759 5762 5764 5765 5765 5767 5770 5773 5775 5775 5776 5777 5777 5777 5777 5777 5778 5779 5780 5780 5779 5779 5779 5779
5722 5724 5726 5729 5731 5733 5737 5739 5739 5740 5741 5743 5746 5747 5749 5751 5751 5753 5756 5758 5760 5761 5762 5764 5767 5770 5772 5773 5774 5776 5776 5776 5776 5775 5776 5777 5778 5779 5779 5779 5778 5777
5719 5721 5723 5725 5727 5729 5732 5736 5736 5737 5738 5740 5743 5745 5747 5749 5750 5752 5754 5754 5755 5757 5758 5762 5765 5768 5769 5770 5772 5774 5774 5774 5774 5774 5773 5774 5775 5776 5777 5777 5777 5775
5717 5718 5719 5721 5723 5725 5727 5730 5731 5734 5736 5738 5741 5743 5744 5746 5749 5750 5752 5752 5753 5753 5754 5757 5761 5763 5766 5767 5769 5771 5771 5772 5772 5772 5772 5773 5775 5775 5775 5777 5778 5776
5714 5715 5716 5718 5720 5721 5723 5726 5728 5731 5734 5736 5739 5740 5741 5744 5746 5748 5749 5750 5751 5752 5752 5753 5756 5759 5762 5764 5765 5766 5767 5768 5769 5769 5770 5772 5774 5774 5773 5774 5776 5776
5711 5711 5713 5715 5716 5718 5720 5722 5724 5728 5731 5735 5737 5739 5739 5740 5742 5744 5746 5747 5748 5749 5750 5750 5753 5756 5758 5759 5761 5761 5762 5764 5766 5766 5767 5769 5771 5773 5772 5773 5774 5774
5707 5708 5710 5711 5712 5714 5716 5719 5722 5724 5726 5729 5733 5736 5737 5738 5740 5741 5743 5745 5746 5747 5747 5749 5751 5754 5756 5756 5758 5758 5758 5760 5762 5764 5764 5766 5769 5771 5771 5772 5772 5771
5704 5705 5706 5708 5709 5710 5712 5716 5719 5721 5722 5724 5728 5730 5734 5737 5740 5742 5743 5744 5744 5745 5746 5747 5750 5753 5755 5755 5755 5755 5756 5757 5759 5760 5762 5763 5765 5767 5768 5770 5770 5770
5701 5702 5703 5704 5706 5708 5710 5712 5715 5718 5720 5723 5726 5728 5730 5733 5738 5740 5741 5743 5743 5744 5746 5746 5748 5751 5752 5753 5753 5753 5754 5755 5756 5757 5759 5760 5761 5763 5764 5766 5767 5769
5698 5699 5700 5702 5703 5705 5708 5709 5711 5714 5717 5721 5724 5727 5729 5731 5733 5736 5739 5742 5743 5743 5745 5745 5746 5748 5750 5751 5751 5752 5752 5754 5755 5756 5757 5758 5759 5759 5760 5761 5763 5766